CAPE
2167 3128 2461 2727 3027 3007 2974 3204 3160 3055 3217 3066 3411 3205 2529 2926 2983 2790 3379 3472 3705 3966 3560 3782 4091 4163 4164 4386 4086 3974 2907 2506 2625 2999 2454 2792 2676 2364 2316 2114 1479 2314
2315 2867 2827 2842 2760 3194 2748 3082 2982 3080 3119 2910 3242 3095 2660 2927 2860 2739 3122 3400 3609 3779 3819 4251 4212 4174 4349 4308 4172 3585 3830 3318 2804 3240 2780 2700 2688 2308 2042 2052 1736 1692
2430 2603 2626 2349 2756 2760 3021 2761 2662 2882 3090 3123 3058 2691 2992 2854 3244 2721 3051 3275 3290 3439 3544 4363 4200 4085 4112 4218 4087 3769 3517 3946 2876 2888 2483 2541 2799 2603 2273 1974 1714 1550
2511 2520 2442 2307 2204 2520 2498 2545 2537 2502 2818 2696 2673 2914 3046 2925 2751 2785 2841 3659 3194 3308 3990 4203 4020 3862 3812 4130 4124 3679 3634 3832 3369 2875 2421 2452 2474 2256 2250 2107 2167 1522
2520 2530 2410 2258 2063 2071 1989 1935 2244 2140 2196 2238 2279 2497 2328 2328 2516 2994 3095 3136 2797 3121 4047 3891 3773 3644 3762 3828 4207 3569 3731 3747 3844 3443 3179 2422 2522 2590 2412 2106 1748 1847
2253 2331 2346 2231 2062 1837 1782 1825 1613 1940 1715 1995 2011 2357 1752 2902 2312 2558 3428 3164 2934 3298 3695 3723 3468 3856 3691 3755 4312 3956 3589 3506 3628 3659 3591 3161 2990 2448 2332 2312 2054 1626
2026 2067 2120 2176 2045 1979 1789 1730 1718 1690 1561 1648 1880 1740 1961 3142 2339 2380 2754 2721 2970 2906 3184 3300 3348 3698 3719 3759 4289 3994 3929 3606 3297 3472 3138 3767 3287 2964 2357 2226 2353 1927
2038 2027 1945 1970 1937 1785 1970 1746 1622 1540 1449 1095 1579 1498 1779 1979 2284 2384 2392 2507 2460 2470 2305 2714 3146 3347 3473 3513 3692 4130 3913 4121 3440 3265 3404 3669 3569 3277 3499 3655 3371 2161
2357 2405 2170 1932 1795 1617 1477 1586 1573 1290 1571 1376 1339 1466 1436 1405 2019 1962 2304 2424 2409 2418 2260 2347 2617 2845 2941 3090 3593 3988 3953 3704 3388 3154 3452 3394 3570 3435 3210 3146 3118 3199
2438 2607 2489 2159 1809 1558 1338 1169 1129 1329 1103 1417 1252 1269 1372 1422 1662 1741 1952 2365 2390 2421 2317 2130 2579 2592 2719 2842 3239 3480 3603 3429 3087 3054 3391 3350 3349 3408 3416 3249 3023 2960
1720 2234 2496 2453 2122 1686 1348 1065 853 920 1168 1034 1224 1137 1069 1230 1687 1638 1787 2110 2214 2184 2559 2104 2712 2536 2430 2547 2731 2996 3218 3126 3062 3197 2995 3150 3237 3271 3707 3093 3059 2971
2858 2066 1902 2092 2305 2131 1601 1100 880 456 536 1027 974 950 927 909 1219 1633 1752 2050 2058 1969 2328 2482 2202 2695 2335 2220 2454 2852 3135 3122 2945 2824 3092 3122 3207 3252 3249 3152 2992 2984
2125 1938 1994 1684 1532 1674 1608 1216 1245 1295 195 815 904 788 674 560 791 1402 1829 2006 1986 1871 1931 2389 2179 2007 2398 2658 2419 2279 2501 2920 2991 2902 2779 2934 3155 3054 2969 2885 2814 2800
2122 1872 1718 1632 1630 1826 1591 1146 1304 1124 858 664 528 854 822 584 309 754 1406 1933 1981 1783 1724 2013 2223 2096 1941 2342 2757 2665 2390 2226 2415 2731 2794 2704 2685 2758 2725 2676 2659 2573
1952 1909 1637 1675 1616 1463 1323 1077 1091 1249 1196 976 300 788 805 784 386 424 892 1416 1939 1790 1643 1721 2185 2176 2056 2162 2366 2455 2546 2579 2164 2136 2420 2593 2556 2452 2422 2362 2314 2315
1801 1349 1661 1801 1851 1716 1478 1270 1116 1333 1281 953 708 651 501 715 715 842 621 964 1394 1737 1626 1624 1800 2247 2373 2090 2308 2444 2252 2221 2371 2239 2060 2202 2256 2206 2113 2065 2041 1937
1999 1644 1458 1710 1824 1745 1653 1424 1203 1331 1225 950 1153 890 722 566 559 586 805 702 915 1247 1574 1542 1541 1890 2211 2076 2040 2312 2463 2266 2150 2200 2153 2033 1898 1772 1683 1616 1570 1568
1399 1710 1459 1390 1403 1266 1411 1381 1269 1150 1100 950 1138 1302 895 821 821 752 825 1201 1001 856 1097 1386 1471 1510 1822 2059 1970 2052 2350 2485 2308 2170 2128 1918 1686 1538 1384 1380 1324 1207
949 1266 1492 1674 1852 1988 2111 2174 1872 1602 1489 1601 1623 1728 1488 1007 799 701 920 1350 1558 1050 806 982 1194 1372 1421 1571 1826 1851 1979 2271 2286 2274 2083 2014 1808 1495 1210 1179 1201 1172
683 833 940 1170 1255 1164 1861 1905 1816 1890 2354 2360 2220 1839 1340 1367 1290 856 924 1161 1417 1537 1707 1576 1106 1012 1173 1228 1212 1395 1594 1776 2010 2161 2124 1974 1818 1673 1402 1142 1106 1096
558 581 634 804 1027 1259 1319 1456 1532 1422 1783 2157 2165 2085 1504 1264 1706 1787 1598 1744 1753 1690 1658 1716 1509 1470 1176 892 903 954 972 1354 1580 1760 1861 1902 1816 1653 1473 1220 1142 1063
642 611 601 617 637 792 1077 1178 1262 1344 1460 1885 2100 2229 2265 1794 1957 1945 1917 1888 1559 1730 1567 1426 1532 1543 1459 1207 987 957 942 908 1148 1376 1527 1507 1531 1590 1519 1285 942 916
603 618 666 663 695 703 724 1114 1195 1160 1244 1642 1914 2079 2248 1953 2031 2288 2390 2324 2192 1962 1748 1486 1492 1585 1563 1435 1256 1050 906 890 881 875 1104 1332 1240 1106 1105 1151 998 681
200 293 378 454 590 695 742 726 773 756 960 1089 1107 1304 1436 1905 2188 2194 2130 2292 2273 2068 1795 1650 1571 1655 1616 1597 1434 1394 1324 1089 883 816 831 887 1216 1028 911 897 850 1095
1 6 44 261 482 824 727 628 592 504 569 792 885 888 1087 1347 1482 1606 1791 1998 2206 2344 2501 2322 2019 1789 1510 1383 1394 1386 1424 1403 1311 1074 884 842 853 1143 1118 924 933 925
0 0 0 98 495 576 532 691 418 469 503 599 692 777 839 963 1299 1419 1577 1737 1763 1800 2251 2500 2388 2338 2099 1633 1422 1284 1322 1393 1416 1409 1251 1099 1027 994 1162 1171 997 946
Wind_Speed
8 9 8 7 7 6 6 6 6 6 7 7 6 6 6 6 5 4 4 4 5 6 6 7 7 6 7 6 5 4 4 4 5 5 5 5 6 7 8 9 8 7
8 9 10 10 8 8 6 6 7 6 6 6 6 6 6 5 5 3 3 2 3 4 4 4 5 6 6 5 5 5 4 4 4 4 5 5 6 6 8 8 8 8
8 8 9 9 9 8 7 6 7 7 6 5 5 4 5 5 5 3 2 1 2 2 2 3 3 5 6 5 4 5 4 4 5 3 4 5 5 6 7 7 7 5
8 8 9 10 11 10 10 9 8 8 7 6 6 4 4 4 5 2 3 1 1 2 1 1 1 3 4 5 4 4 4 4 4 1 3 4 4 5 7 6 5 6
9 8 9 10 11 12 12 12 10 8 8 7 7 7 5 7 5 4 3 3 2 3 2 2 3 2 2 4 3 4 4 3 4 2 2 4 3 4 6 6 6 5
10 9 9 10 11 13 12 13 12 10 10 10 7 9 6 7 5 5 6 4 3 4 2 3 3 3 2 3 2 2 3 2 3 2 1 2 2 3 4 5 5 6
11 10 9 10 10 12 12 12 13 13 10 12 10 10 9 10 7 6 6 5 6 5 4 3 3 3 3 4 4 2 4 3 2 2 2 2 1 1 2 3 3 3
12 12 10 10 10 12 13 12 12 14 13 13 12 10 10 11 9 9 7 7 7 6 5 5 4 3 3 4 4 4 3 5 5 4 4 3 3 1 1 1 1 2
13 13 12 10 10 12 12 13 13 13 14 13 13 12 11 11 11 10 9 8 8 7 5 6 5 4 3 3 4 4 4 5 6 6 5 4 3 3 2 2 3 3
17 13 14 12 11 12 12 14 15 14 13 14 13 14 12 12 11 11 12 10 9 9 7 6 6 4 4 4 4 4 4 4 6 6 6 4 4 5 4 4 3 3
23 21 16 14 13 14 14 15 15 15 14 13 14 14 14 12 13 12 12 12 10 9 9 7 7 5 5 4 4 4 3 2 3 6 6 5 5 5 6 6 5 4
24 23 24 26 26 25 23 21 17 14 16 13 13 13 15 13 13 12 12 12 11 9 10 8 8 8 5 4 5 5 4 3 3 3 5 5 5 6 6 7 6 5
27 25 24 25 26 26 24 25 27 24 19 15 13 13 11 14 13 12 13 12 11 10 9 9 8 8 8 6 6 6 6 5 4 3 3 5 6 5 6 6 6 6
28 28 28 27 26 26 27 28 27 25 26 26 19 12 11 9 13 11 13 13 12 10 9 9 9 8 7 7 7 6 6 5 4 5 4 4 5 6 7 7 7 8
29 27 27 26 27 28 28 26 27 27 25 22 24 25 22 17 11 13 12 12 13 12 11 10 10 9 9 8 7 6 7 7 5 4 5 5 4 5 5 5 6 6
29 28 27 27 28 29 27 24 25 25 25 23 22 22 21 20 21 17 13 13 14 13 12 11 11 11 9 7 7 7 6 5 6 5 5 6 6 5 4 4 4 5
30 30 28 29 29 29 27 26 24 22 23 22 20 20 22 20 18 18 17 12 13 15 13 11 11 11 11 9 8 9 7 6 5 6 6 6 7 7 5 5 4 5
29 29 31 31 31 30 29 28 25 24 22 20 20 21 22 21 17 14 15 15 11 12 14 13 12 11 14 12 10 10 9 8 7 6 7 7 7 7 7 7 6 6
28 29 29 30 30 29 29 29 28 27 25 25 24 25 29 24 18 14 12 15 17 14 10 13 13 12 13 15 14 12 10 9 8 7 6 6 7 7 8 8 9 8
28 29 29 28 28 28 28 29 30 29 28 28 27 28 27 27 23 17 14 15 17 19 19 19 18 14 11 13 14 14 12 10 8 8 7 6 7 8 8 8 8 9
25 28 30 30 28 29 29 30 30 30 29 30 30 28 27 29 30 26 23 21 21 21 20 20 19 25 22 16 13 12 10 11 10 10 9 9 8 8 9 10 10 9
23 26 29 29 30 30 31 31 30 29 28 29 29 29 30 30 30 27 24 22 20 19 19 17 20 23 24 23 19 18 18 19 15 12 10 10 10 11 11 12 12 12
25 25 28 30 32 34 35 34 32 29 29 29 29 30 30 31 32 31 29 26 23 20 18 17 17 21 23 21 22 22 24 21 19 15 12 10 10 12 13 14 15 15
30 28 27 29 31 34 36 38 36 33 32 32 31 30 30 31 33 32 30 27 26 24 20 18 16 18 20 23 22 23 25 24 22 20 15 12 10 11 13 14 15 15
nan nan nan 29 29 30 32 34 36 34 32 31 30 30 28 27 27 29 29 28 27 26 21 18 17 18 18 19 23 26 26 25 25 23 18 15 14 13 14 15 16 14
nan nan nan nan 31 30 30 30 32 33 31 28 27 28 27 26 27 27 27 26 27 28 27 23 20 21 23 20 20 25 27 27 27 24 19 18 18 17 15 16 16 17
Wind_Direction
205 201 216 214 202 196 181 180 176 181 172 163 162 146 127 132 121 109 114 110 111 123 110 113 117 116 105 114 117 127 82 78 85 89 89 103 112 121 129 129 132 131
215 207 208 216 209 203 197 192 184 191 183 170 160 154 148 153 133 130 133 118 121 119 122 123 126 118 116 118 117 116 116 93 78 86 77 86 102 109 119 130 129 142
229 216 216 216 219 210 214 205 196 191 190 180 172 158 155 153 162 146 157 145 123 128 131 148 133 125 125 122 114 116 117 114 91 90 63 75 89 95 107 118 132 129
243 227 220 218 215 213 216 216 205 201 200 188 188 181 180 175 178 165 173 157 192 197 200 190 165 146 140 136 129 122 117 108 95 89 57 76 80 92 103 113 125 139
254 239 228 223 217 216 214 214 213 210 208 205 197 206 212 201 202 205 193 184 204 212 229 238 229 211 169 158 157 146 146 106 117 102 19 44 68 75 99 113 117 120
253 244 235 232 227 222 220 214 214 218 211 214 212 219 214 213 213 218 217 221 218 227 255 239 231 223 235 200 205 179 169 148 135 147 232 330 37 54 96 105 103 114
267 261 246 238 237 230 226 224 219 222 221 218 222 221 223 229 226 228 233 235 223 218 247 254 254 235 235 226 228 224 194 214 201 210 207 199 264 2 64 83 88 93
271 269 262 246 241 233 232 231 227 224 225 227 234 227 233 236 240 229 235 245 237 234 221 244 269 265 253 237 236 235 204 218 241 248 233 221 232 212 187 166 243 73
262 265 269 264 250 239 236 235 231 228 229 232 234 235 238 242 244 242 243 243 246 247 241 230 253 268 267 264 249 248 226 205 235 251 247 238 239 247 239 204 217 248
231 253 272 266 261 253 247 236 231 230 229 230 228 236 244 239 249 253 247 247 248 243 247 238 246 251 259 268 273 260 239 213 212 233 246 249 245 245 246 248 236 234
232 228 233 253 262 266 259 248 238 233 234 229 227 226 232 239 247 251 251 253 255 248 243 241 246 255 243 246 250 252 266 254 208 221 228 234 244 246 251 255 257 253
222 230 238 242 237 232 233 233 239 248 237 233 234 226 221 232 245 250 253 256 254 256 250 244 243 251 249 235 245 253 260 251 242 216 228 235 229 240 244 248 248 255
221 222 227 234 237 235 236 236 230 222 228 243 249 234 230 228 234 243 252 257 257 257 256 252 247 240 243 241 237 241 253 251 247 249 225 228 234 237 239 243 247 248
223 228 228 231 237 242 241 237 233 233 233 225 229 245 263 253 238 246 246 255 262 261 256 252 252 247 243 245 241 242 245 247 255 250 250 233 226 230 233 233 239 242
225 231 230 231 238 242 243 240 243 242 238 238 241 235 225 224 240 264 268 258 259 262 261 252 251 248 245 251 255 244 241 244 254 262 260 257 246 240 237 234 230 233
231 234 235 236 240 246 246 243 245 247 249 248 244 242 235 229 222 220 255 282 270 264 263 259 253 249 259 306 288 260 262 258 253 261 271 272 271 257 249 253 247 237
235 236 236 237 240 242 241 240 241 246 252 253 252 255 252 237 221 218 221 247 291 284 277 269 265 265 301 310 320 328 296 285 293 277 275 294 297 289 282 275 261 258
232 234 237 239 237 236 240 245 242 233 230 238 253 259 257 257 242 224 219 230 253 290 295 285 276 290 304 308 319 328 320 296 293 300 292 298 311 316 310 299 290 277
224 233 238 239 236 236 236 235 235 240 236 223 222 237 243 240 245 246 231 229 236 238 269 290 281 297 308 312 317 321 326 311 277 288 299 291 296 309 313 313 306 298
226 228 233 236 236 234 236 236 235 237 236 234 232 234 238 245 242 236 235 235 236 242 244 239 247 252 287 303 310 316 317 306 275 283 284 288 286 286 290 301 305 301
237 233 231 232 233 234 236 241 240 236 233 233 236 240 240 236 239 237 228 226 233 237 242 254 256 264 272 278 269 263 269 284 277 276 271 275 282 282 279 284 288 295
255 245 237 236 236 235 237 238 240 241 237 235 234 238 238 240 241 242 240 238 238 239 241 244 262 274 268 274 280 284 284 269 256 256 270 276 281 281 282 279 278 283
255 252 245 239 238 236 235 236 237 239 240 240 240 237 234 235 237 238 240 240 238 242 244 246 243 270 278 271 273 274 269 263 268 265 257 261 276 282 283 284 282 281
251 250 250 246 239 238 238 236 235 239 240 238 238 232 227 229 230 232 233 236 235 232 237 234 236 237 252 272 276 272 271 267 267 268 270 268 264 268 272 275 282 300
nan nan nan 256 254 250 245 240 236 238 240 241 238 232 227 226 227 229 230 231 230 233 232 229 227 236 245 250 267 271 266 259 262 263 264 266 265 262 262 264 266 275
nan nan nan nan 263 260 257 252 246 241 236 235 234 233 228 226 225 226 226 228 227 227 228 230 229 233 241 247 252 262 268 258 256 258 258 257 257 257 259 263 263 264